This is the latest recevied weather packets stored in our database for station/object F4THN-13. If no packets are shown the sender has not sent any weather packets the latest 10 day(s).
| Time | Temp. | Humidity | Pressure | Rain* | Wind** | Luminosity | Snow |
|---|---|---|---|---|---|---|---|
| 1777520807 | 12.22° C | 76% | 1016.8 hPa | 0 mm | - | - | - |
| 1777519307 | 12.22° C | 76% | 1016.9 hPa | 0 mm | - | - | - |
| 1777517807 | 12.22° C | 76% | 1016.7 hPa | 0 mm | - | - | - |
| 1777516307 | 12.78° C | 76% | 1016.7 hPa | 0 mm | - | - | - |
| 1777514806 | 12.78° C | 76% | 1016.6 hPa | 0 mm | - | - | - |
| 1777513306 | 15° C | 71% | 1016.7 hPa | 0 mm | - | - | - |
| 1777511806 | 15° C | 71% | 1016.6 hPa | 0 mm | - | - | - |
| 1777510306 | 15° C | 71% | 1016.7 hPa | 0 mm | - | - | - |
| 1777508806 | 15° C | 71% | 1016.7 hPa | 0 mm | - | - | - |
| 1777507306 | 15.56° C | 74% | 1016.5 hPa | 0 mm | - | - | - |
| 1777505805 | 15.56° C | 74% | 1016.1 hPa | 0 mm | - | - | - |
| 1777504305 | 15.56° C | 74% | 1016 hPa | 0 mm | - | - | - |
| 1777502805 | 15.56° C | 74% | 1015.9 hPa | 0 mm | - | - | - |
| 1777501305 | 15.56° C | 74% | 1015.7 hPa | 0 mm | - | - | - |
| 1777499805 | 15.56° C | 74% | 1015.5 hPa | 0 mm | - | - | - |
| 1777498305 | 16.11° C | 74% | 1015.3 hPa | 0 mm | - | - | - |
| 1777496804 | 16.11° C | 75% | 1015.3 hPa | 0 mm | - | - | - |
| 1777495304 | 17.22° C | 73% | 1015.1 hPa | 0 mm | - | - | - |
| 1777493804 | 17.22° C | 73% | 1014.7 hPa | 0 mm | - | - | - |
| 1777492304 | 17.78° C | 72% | 1014.4 hPa | 0 mm | - | - | - |
| 1777490804 | 18.33° C | 70% | 1014.3 hPa | 0 mm | - | - | - |
| 1777489304 | 20° C | 67% | 1014 hPa | 0 mm | - | - | - |
| 1777487804 | 20.56° C | 65% | 1013.7 hPa | 0 mm | - | - | - |
| 1777486303 | 21.67° C | 62% | 1013.5 hPa | 0 mm | - | - | - |
| 1777484803 | 21.67° C | 61% | 1013.4 hPa | 0 mm | - | - | - |
* Rain latest hour (hover to see other rain measurements)
** Current wind speed in m/s (hover to see current wind gust speed)